Regional Weather Roundup
Issued by NWS

Home | Current Version | Previous Version | Text Only | Print | Product List | Glossary Off
Versions: 1 2 3 4 5 6 7 8 9 10 11 12 13 14 15 16 17 18 19 20 21 22 23 24 25 26 27 28 29 30 31 32 33 34 35 36 37 38 39 40 41 42 43 44 45 46 47 48 49 50

508
ASUS43 KLSX 231310
RWRMO

WEATHER SUMMARY FOR MISSOURI
NATIONAL WEATHER SERVICE SPRINGFIELD MO
800 AM CDT MON APR 23 2018

NOTE: "FAIR" INDICATES FEW OR NO CLOUDS BELOW 12,000 FEET WITH NO
       SIGNIFICANT WEATHER AND/OR OBSTRUCTIONS TO VISIBILITY.
       CURRENT SKY AND/OR WEATHER CONDITIONS ARE NOT AVAILABLE FOR
       CHILLICOTHE AND FARMINGTON.

MOZ001>031-035>038-043-044-053-054-231400-
...NORTHERN AND WESTERN MISSOURI...

CITY           SKY/WX    TMP DP  RH WIND       PRES   REMARKS
KANSAS CTY INT MOSUNNY   55  34  45 N9        30.12R
KANSAS C DTWN  SUNNY     58  31  35 NE6       30.10S
LEE`S SUMMIT   CLOUDY    56  33  42 N12       30.11R
ST JOSEPH      CLOUDY    53  33  46 N9        30.15R
CHILLICOTHE      N/A     54  34  46 VRB6      30.13S
KIRKSVILLE     PTSUNNY   50  33  52 NE13      30.14R

$$
MOZ066>068-077>081-088>096-101>105-231400-
...SOUTHWEST MISSOURI...

CITY           SKY/WX    TMP DP  RH WIND       PRES   REMARKS
SPRINGFIELD    LGT RAIN  53  50  89 N14       30.01R FOG
JOPLIN         CLOUDY    53  48  83 N12       30.05R
BRANSON        CLOUDY    52  52 100 N13       29.98R

$$
MOZ032>034-039>042-045>050-055>058-069>072-231400-
...CENTRAL MISSOURI...

CITY           SKY/WX    TMP DP  RH WIND       PRES   REMARKS
COLUMBIA       CLOUDY    54  34  46 N13       30.05R
JEFFERSON CITY LGT RAIN  55  35  47 N9        30.04R
ROLLA          CLOUDY    53  39  59 N15       29.99S
SEDALIA        CLOUDY    53  41  63 N10       30.07S
WHITEMAN AFB   PTSUNNY   54  36  52 N10       30.03S
WARRENSBURG    CLOUDY    54  36  50 N7        30.08S
OSAGE BEACH    CLOUDY    54  42  64 N7        30.02S

$$
MOZ051-052-059>065-231400-
...EAST CENTRAL MISSOURI...

CITY           SKY/WX    TMP DP  RH WIND       PRES   REMARKS
ST LOUIS INTL  CLOUDY    51  42  71 NE13      30.00R
SPIRIT OF STL  CLOUDY    53  40  61 NE12      29.99S
ST CHARLES     CLOUDY    52  39  61 NE16      30.01R

$$
MOZ072>076-082>087-097>100-106>115-231400-
...SOUTH CENTRAL AND SOUTHEAST MISSOURI...

CITY           SKY/WX    TMP DP  RH WIND       PRES   REMARKS
CAPE GIRARDEAU LGT RAIN  54  53  97 NE17      29.80S VSB 1
FARMINGTON     LGT RAIN  48  47  96 N10G18    29.91S FOG
POPLAR BLUFF   LGT RAIN  52  51  97 N12       29.83R FOG
WEST PLAINS    LGT RAIN  51  49  92 N13       29.92R FOG

$$




USA.gov is the U.S. government's official web portal to all federal, state and local government web resources and services.